sat.trackr.live / text

‹ back to catalog

STARLINK-3948

NORAD 52546 · 2022-051P

PAYLOAD ACTIVE UNKNOWN

§ Identity

Operator
Country
US
Launch date
2022-05-13
Launch site
AFWTR
Launch vehicle
Mass (kg)
RCS (m²)

Purposes: comms

External: N2YO · Heavens-Above · Gunter

§ Orbital elements

Epoch: 2026-05-25T03:49:32.655936Z

Period
95.44 min
Inclination
53.2148°
Eccentricity
0.0001173
Mean motion
15.08845097 rev/d
Perigee alt
538.9 km
Apogee alt
540.5 km
Semi-major
6,917.9 km
B*
7.7202e-5
RAAN
145.6042°
Arg perigee
80.5495°
Mean anomaly
279.5630°
Rev number
22,299

§ Raw data

STARLINK-39481 52546U 22051P   26145.15940574  .00000941  00000+0  77202-4 0  99902 52546  53.2148 145.6042 0001173  80.5495 279.5630 15.08845097222995

JSON: /api/v1/satellites/52546 · /tle

For live sub-satellite position, see the globe view (requires WebGL).

§ Visibility from observer

Set your observer location to see the next 7 days of passes ≥ 10°. The values pass through the URL so the page stays shareable.

No JS? Fill the form by hand. The geolocation button needs JavaScript.